Previsão horária em Abasnurskiy

Hoje, 17 Abril, Sábado

Tempo Temperatura Precipitação Vento Pressão Humidade
00:00 +3°C° 0 mm 3 m/s 757 mmHg 76%
01:00 +2°C° 0 mm 3 m/s 757 mmHg 76%
02:00 +2°C° 0 mm 3 m/s 757 mmHg 76%
03:00 +1°C° 0 mm 3 m/s 757 mmHg 76%
04:00 +1°C° 0 mm 3 m/s 758 mmHg 75%
05:00 +1°C° 0 mm 3 m/s 758 mmHg 74%
06:00 0°C° 0 mm 4 m/s 758 mmHg 73%
07:00 +3°C° 0 mm 4 m/s 758 mmHg 65%
08:00 +5°C° 0 mm 4 m/s 758 mmHg 57%
09:00 +6°C° 0 mm 5 m/s 758 mmHg 49%
10:00 +8°C° 0 mm 5 m/s 758 mmHg 46%
11:00 +9°C° 0 mm 5 m/s 758 mmHg 42%
12:00 +11°C° 0 mm 4 m/s 757 mmHg 39%
13:00 +11°C° 0 mm 4 m/s 757 mmHg 39%
14:00 +11°C° 0 mm 4 m/s 757 mmHg 39%
15:00 +12°C° 0 mm 4 m/s 757 mmHg 39%
16:00 +11°C° 0 mm 3 m/s 757 mmHg 44%
17:00 +10°C° 0 mm 3 m/s 756 mmHg 49%
18:00 +9°C° 0 mm 3 m/s 756 mmHg 54%
19:00 +8°C° 0 mm 3 m/s 756 mmHg 58%
20:00 +6°C° 0 mm 2 m/s 756 mmHg 63%
21:00 +5°C° 0 mm 2 m/s 756 mmHg 68%
22:00 +4°C° 0 mm 2 m/s 756 mmHg 71%
23:00 +4°C° 0 mm 2 m/s 756 mmHg 73%

Amanhã, 18 Abril, Domingo

Tempo Temperatura Precipitação Vento Pressão Humidade
00:00 +3°C° 0 mm 2 m/s 756 mmHg 76%
01:00 +3°C° 0 mm 2 m/s 756 mmHg 78%
02:00 +3°C° 0 mm 2 m/s 756 mmHg 80%
03:00 +2°C° 0 mm 2 m/s 756 mmHg 81%
04:00 +3°C° 0 mm 2 m/s 756 mmHg 81%
05:00 +3°C° 0 mm 2 m/s 756 mmHg 80%
06:00 +3°C° 0 mm 2 m/s 756 mmHg 80%
07:00 +4°C° 0 mm 3 m/s 756 mmHg 72%
08:00 +7°C° 0 mm 3 m/s 756 mmHg 63%
09:00 +8°C° 0 mm 4 m/s 756 mmHg 55%
10:00 +10°C° 0 mm 4 m/s 756 mmHg 52%
11:00 +9°C° 0 mm 5 m/s 756 mmHg 50%
12:00 +10°C° 0 mm 5 m/s 756 mmHg 47%
13:00 +10°C° 0 mm 6 m/s 756 mmHg 49%
14:00 +10°C° 0 mm 6 m/s 756 mmHg 50%
15:00 +9°C° 0 mm 7 m/s 756 mmHg 52%
16:00 +8°C° 0 mm 6 m/s 756 mmHg 56%
17:00 +7°C° 0 mm 6 m/s 757 mmHg 59%
18:00 +4°C° 0 mm 6 m/s 757 mmHg 63%
19:00 +5°C° 0 mm 5 m/s 757 mmHg 61%
20:00 +3°C° 0 mm 5 m/s 757 mmHg 59%
21:00 +2°C° 0 mm 5 m/s 758 mmHg 57%
22:00 +2°C° 0 mm 5 m/s 758 mmHg 56%
23:00 +1°C° 0 mm 5 m/s 758 mmHg 55%

Depois de amanhã, 19 Abril, Segunda-feira

Tempo Temperatura Precipitação Vento Pressão Humidade
00:00 +1°C° 0 mm 5 m/s 758 mmHg 55%
01:00 0°C° 0 mm 5 m/s 758 mmHg 58%
02:00 0°C° 0 mm 5 m/s 759 mmHg 61%
03:00 -1°C° 0 mm 5 m/s 759 mmHg 65%
04:00 -1°C° 0 mm 5 m/s 759 mmHg 63%
05:00 -1°C° 0 mm 5 m/s 759 mmHg 62%
06:00 -1°C° 0 mm 5 m/s 759 mmHg 61%
07:00 -1°C° 0 mm 6 m/s 760 mmHg 53%
08:00 +1°C° 0 mm 6 m/s 760 mmHg 46%
09:00 +2°C° 0 mm 7 m/s 760 mmHg 39%
10:00 +3°C° 0 mm 7 m/s 760 mmHg 36%
11:00 +4°C° 0 mm 7 m/s 760 mmHg 33%
12:00 +5°C° 0 mm 7 m/s 760 mmHg 30%
13:00 +5°C° 0 mm 6 m/s 760 mmHg 29%
14:00 +5°C° 0 mm 6 m/s 760 mmHg 29%
15:00 +7°C° 0 mm 6 m/s 760 mmHg 28%
16:00 +5°C° 0 mm 6 m/s 760 mmHg 31%
17:00 +5°C° 0 mm 5 m/s 760 mmHg 34%
18:00 +5°C° 0 mm 5 m/s 760 mmHg 37%
19:00 +2°C° 0 mm 5 m/s 760 mmHg 41%
20:00 +1°C° 0 mm 4 m/s 760 mmHg 45%
21:00 0°C° 0 mm 4 m/s 760 mmHg 49%
22:00 0°C° 0 mm 4 m/s 760 mmHg 51%
23:00 -1°C° 0 mm 4 m/s 760 mmHg 52%

20 Abril, Terça-feira

Tempo Temperatura Precipitação Vento Pressão Humidade
00:00 -1°C° 0 mm 4 m/s 760 mmHg 53%
01:00 -2°C° 0 mm 4 m/s 761 mmHg 54%
02:00 -2°C° 0 mm 4 m/s 761 mmHg 54%
03:00 -2°C° 0 mm 4 m/s 761 mmHg 55%
04:00 -2°C° 0 mm 4 m/s 761 mmHg 54%
05:00 -2°C° 0 mm 4 m/s 761 mmHg 53%
06:00 -1°C° 0 mm 4 m/s 761 mmHg 53%
07:00 0°C° 0 mm 5 m/s 761 mmHg 48%
08:00 +2°C° 0 mm 5 m/s 761 mmHg 43%
09:00 +4°C° 0 mm 6 m/s 760 mmHg 39%
10:00 +5°C° 0 mm 6 m/s 760 mmHg 35%
11:00 +7°C° 0 mm 6 m/s 760 mmHg 32%
12:00 +8°C° 0 mm 6 m/s 760 mmHg 29%
13:00 +8°C° 0 mm 6 m/s 760 mmHg 29%
14:00 +8°C° 0 mm 6 m/s 759 mmHg 29%
15:00 +8°C° 0 mm 6 m/s 759 mmHg 29%
16:00 +8°C° 0 mm 6 m/s 759 mmHg 32%
17:00 +7°C° 0 mm 5 m/s 758 mmHg 35%
18:00 +6°C° 0 mm 5 m/s 758 mmHg 38%
19:00 +5°C° 0 mm 5 m/s 758 mmHg 40%
20:00 +3°C° 0 mm 5 m/s 758 mmHg 43%
21:00 +2°C° 0 mm 5 m/s 758 mmHg 46%
22:00 +2°C° 0 mm 5 m/s 757 mmHg 47%
23:00 +2°C° 0 mm 5 m/s 757 mmHg 47%

21 Abril, Quarta-feira

Tempo Temperatura Precipitação Vento Pressão Humidade
00:00 +2°C° 0 mm 5 m/s 757 mmHg 48%
01:00 +1°C° 0 mm 6 m/s 757 mmHg 49%
02:00 +1°C° 0 mm 6 m/s 756 mmHg 50%
03:00 +1°C° 0 mm 6 m/s 756 mmHg 52%
04:00 +1°C° 0 mm 6 m/s 755 mmHg 51%
05:00 0°C° 0 mm 7 m/s 755 mmHg 51%
06:00 0°C° 0 mm 7 m/s 755 mmHg 51%
07:00 +2°C° 0 mm 7 m/s 754 mmHg 49%
08:00 +4°C° 0 mm 8 m/s 754 mmHg 47%
09:00 +5°C° 0 mm 8 m/s 754 mmHg 45%
10:00 +4°C° 0.3 mm 8 m/s 754 mmHg 53%
11:00 +2°C° 0.3 mm 8 m/s 754 mmHg 61%
12:00 +1°C° 0.3 mm 8 m/s 754 mmHg 68%
13:00 +1°C° 0.8 mm 8 m/s 754 mmHg 74%
14:00 +1°C° 0.8 mm 8 m/s 754 mmHg 80%
15:00 0°C° 0.8 mm 7 m/s 754 mmHg 86%
16:00 +2°C° 0.5 mm 7 m/s 754 mmHg 86%
17:00 +2°C° 0.5 mm 7 m/s 754 mmHg 87%
18:00 +2°C° 0.5 mm 7 m/s 754 mmHg 87%
19:00 +2°C° 0.3 mm 7 m/s 754 mmHg 88%
20:00 +2°C° 0.3 mm 7 m/s 754 mmHg 88%
21:00 +2°C° 0.3 mm 6 m/s 754 mmHg 89%
22:00 +2°C° 0 mm 6 m/s 754 mmHg 90%
23:00 +2°C° 0 mm 6 m/s 754 mmHg 91%

22 Abril, Quinta-feira

Tempo Temperatura Precipitação Vento Pressão Humidade
00:00 +3°C° 0 mm 5 m/s 754 mmHg 91%
01:00 +3°C° 0 mm 5 m/s 754 mmHg 92%
02:00 +3°C° 0 mm 5 m/s 754 mmHg 93%
03:00 +3°C° 0 mm 5 m/s 754 mmHg 94%
04:00 +4°C° 0 mm 4 m/s 754 mmHg 95%
05:00 +4°C° 0 mm 4 m/s 755 mmHg 95%
06:00 +4°C° 0 mm 4 m/s 755 mmHg 96%
07:00 +4°C° 0 mm 4 m/s 755 mmHg 94%
08:00 +5°C° 0 mm 4 m/s 755 mmHg 91%
09:00 +6°C° 0 mm 5 m/s 755 mmHg 89%
10:00 +7°C° 0 mm 5 m/s 755 mmHg 86%
11:00 +7°C° 0 mm 5 m/s 756 mmHg 83%
12:00 +8°C° 0 mm 5 m/s 756 mmHg 80%
13:00 +8°C° 0 mm 5 m/s 756 mmHg 80%
14:00 +8°C° 0 mm 5 m/s 756 mmHg 80%
15:00 +8°C° 0 mm 5 m/s 756 mmHg 80%
16:00 +8°C° 0 mm 5 m/s 756 mmHg 83%
17:00 +7°C° 0 mm 5 m/s 756 mmHg 85%
18:00 +7°C° 0 mm 5 m/s 756 mmHg 87%
19:00 +6°C° 0 mm 4 m/s 756 mmHg 90%
20:00 +6°C° 0 mm 4 m/s 756 mmHg 92%
21:00 +5°C° 0 mm 4 m/s 757 mmHg 95%
22:00 +5°C° 0 mm 4 m/s 757 mmHg 95%
23:00 +4°C° 0 mm 4 m/s 757 mmHg 96%
Mostrar mais

Necessitamos do seu Consentimento

A Meteoprog e os seus Fornecedores de Serviços podem armazenar e aceder a dados pessoais como cookies, identificadores do dispositivo ou outras tecnologias semelhantes existentes no seu dispositivo e processar estes dados para personalizar conteúdos e anúncios, assim como funcionalidades nas redes sociais e análise de tráfego.

  • Armazenar e/ou aceder a informações no seu dispositivo

    Os cookies, identificadores do dispositivo ou outras informações podem ser armazenados ou acedidos no seu dispositivo, para os fins acima indicados.

  • Anúncios e conteúdos personalizados, medição de anúncios e conteúdos, dados sobre o público-alvo e desenvolvimento de produtos

    Os anúncios e os conteúdos podem ser personalizados com base num perfil. Podem ser adicionados dados adicionais para uma maior personalização dos anúncios e dos conteúdos. A eficácia dos anúncios e dos conteúdos pode ser medida. Podem ser obtidas informações sobre o público que visualizou os anúncios e os conteúdos. Estes dados podem ser usados para desenvolver ou melhorar sistemas, softwares ou a experiência do utilizador.

Ao clicar em "Eu concordo”, permitirá o uso de cookies, identificadores do dispositivo e web beacons mencionados ou outras tecnologias semelhantes. As configurações do navegador do seu dispositivo podem ser alteradas.

Para certos fins, podem ser invocados interesses legítimos ao invés de consentimento. Pode ler mais informação sobre este assunto na nossa Política de Privacidade e Cookies.